User: anonymous   Login
Location: Unspecified
(0.0000°N, 0.0000°E)
Time: 07:46:23
(UTC+00:00)
Language:

A-11 Canister half - Orbit

View from above orbital plane
View from above orbital plane
View from above satellite
View from above satellite

Ground track
Ground track

The orbit data is extracted from the following two-line orbital elements,

1 00051U 60009C   14297.72422910 -.00000085  00000-0  00000+0 0  6722
2 00051 047.2125 248.8948 0102301 150.4366 281.5652 12.18239840412615
Epoch (UTC): 24 October 2014 17:22:53
Eccentricity: 0.0102301
inclination: 47.2125°
perigee height: 1518 km
apogee height: 1682 km
right ascension of ascending node: 248.8948°
argument of perigee: 150.4366°
revolutions per day: 12.18239840
mean anomaly at epoch: 281.5652°
orbit number at epoch: 41261

The dashed part of the orbit path shows where the satellite is in the earth's shadow,  

DLR